[[{"header":{"parameterUnit":"m.s-1","parameterCategory":1,"la1":30.2991,"la2":30.254,"lo1":-89.0895,"lo2":-89.0444,"dy":0.0017,"dx":0.0017,"nx":28,"ny":28,"refTime":"2023-08-18T09:00:00:Z","depth":0,"parameterNumber":2,"parameterNumberName":"U-component_of_WINDS"},"data":[0,0,0,0,0,0,0,0,0,0,0,0,0,0,0,0,0,0,0,0,0,0,0,0,0,0,0,0,0,0,0,0,0,0,0,0,0,0,0,0,0,0,0,0,0,0,0,0,0,0,0,0,0,0,0,0,0,0,0.4554,0.4555,0,0.4666,0.4668,0.4669,0.4736,0.4736,0.4737,0.4737,0.4848,0.4851,0.4853,0,0,0,0,0,0,0,0,0,0,0,0,0,0.4393,0.4396,0.4554,0.4555,0.4557,0.4666,0.4668,0.4669,0.4736,0.4736,0.4737,0.4737,0.4847,0.485,0.4854,0,0,0,0,0,0,0,0,0,0,0,0,0,0.448,0.4396,0.4554,0.4603,0.4609,0.4666,0.4668,0.467,0.4736,0.4736,0.4737,0.4737,0.4846,0.485,0.4854,0.4869,0,0,0.4866,0.4868,0,0,0,0,0,0,0,0,0.4475,0.4485,0.4595,0.46,0.4606,0.4688,0.4652,0.4736,0.4736,0.4687,0.4737,0.4737,0.4794,0.4802,0.4822,0.4874,0.4879,0.4867,0.4869,0.4871,0.4872,0,0,0,0,0,0,0,0.4469,0.4481,0.4598,0.4596,0.4603,0.4619,0.4631,0.4668,0.4737,0.4692,0.4697,0.4709,0.4797,0.4818,0.4825,0.4881,0.4866,0.487,0.4873,0.4874,0.495,0.495,0,0,0,0,0,0,0.4455,0.4476,0.4595,0.4602,0.454,0.4621,0.4635,0.4661,0.4736,0.4748,0.4709,0.4712,0.4811,0.4821,0.483,0.4852,0.4871,0.4874,0.4877,0.495,0.495,0.4949,0,0,0,0,0,0,0.4451,0.4465,0.459,0.454,0.4557,0.4623,0.4651,0.4663,0.4684,0.475,0.4762,0.4718,0.4812,0.4824,0.4859,0.4857,0.4876,0.488,0.4951,0.495,0.495,0.4896,0,0,0,0,0,0,0.4447,0.4463,0.4471,0.454,0.456,0.4618,0.4651,0.4665,0.4691,0.4696,0.4761,0.4772,0.4813,0.4853,0.4863,0.4862,0.4883,0.4951,0.4951,0.495,0.4899,0.4894,0.489,0,0,0,0,0,0.4441,0.4451,0.4471,0.4485,0.457,0.4618,0.4629,0.4677,0.4691,0.4698,0.474,0.477,0.4855,0.4856,0.4868,0.4868,0.4952,0.4951,0.495,0.4901,0.4895,0.489,0,0,0,0,0,0,0.4378,0.4461,0.4484,0.4517,0.456,0.463,0.464,0.467,0.471,0.4713,0.477,0.4783,0.4813,0.4844,0.4843,0.4887,0.4907,0.4908,0.4865,0.486,0.4856,0.4848,0.4886,0,0,0,0,0,0.4368,0.4402,0.4472,0.4494,0.4514,0.4573,0.4596,0.4629,0.4676,0.4694,0.4739,0.4782,0.4819,0.4841,0.4878,0.4904,0.4918,0.491,0.4906,0.4902,0.4902,0.4917,0.4914,0.4947,0.4947,0.4947,0,0,0.4348,0.4397,0.4415,0.4482,0.452,0.4552,0.4588,0.4621,0.4645,0.4699,0.4735,0.4769,0.4821,0.4851,0.4866,0.4878,0.4897,0.4901,0.4897,0.49,0.4916,0.4913,0.491,0.4946,0.4946,0.4946,0,0,0.4328,0.4369,0.4392,0.4429,0.4486,0.4525,0.453,0.4595,0.462,0.4658,0.4699,0.4727,0.4789,0.4824,0.485,0.4843,0.4872,0.4853,0.4831,0.4845,0.4842,0.484,0.4837,0.4835,0.4854,0.4853,0.4853,0,0.4295,0.4346,0.4399,0.443,0.4457,0.4509,0.4532,0.4565,0.463,0.4648,0.4661,0.4739,0.4778,0.4816,0.4814,0.4834,0.4841,0.4846,0.4839,0.4837,0.4836,0.4834,0.4832,0.4851,0.4851,0.4851,0.4852,0,0.4303,0.4338,0.4349,0.4413,0.4442,0.4468,0.4523,0.4547,0.4577,0.4614,0.4651,0.4699,0.4747,0.4759,0.4788,0.4801,0.4807,0.4828,0.4849,0.4829,0.4828,0.4827,0.4847,0.4848,0.4849,0.4849,0,0,0.4246,0.4339,0.4342,0.4371,0.4438,0.4465,0.4493,0.4541,0.4559,0.4602,0.4626,0.4677,0.4698,0.4727,0.4761,0.4773,0.4764,0.4794,0.4796,0.4786,0.478,0.4763,0.4761,0.4784,0.4784,0.4784,0.4775,0,0.4235,0.429,0.4338,0.4374,0.4406,0.4456,0.448,0.4523,0.4558,0.459,0.4629,0.4664,0.4688,0.4706,0.4721,0.4762,0.4763,0.4763,0.4805,0.4806,0.479,0.4761,0.4743,0.4733,0.4775,0.4775,0.4775,0,0.4229,0.4272,0.4312,0.4375,0.439,0.4411,0.4459,0.4489,0.4538,0.4563,0.4595,0.4631,0.4662,0.468,0.4722,0.4721,0.4741,0.4764,0.4765,0.477,0.4789,0.4764,0.4731,0.4729,0.4775,0.4775,0.4775,0,0.4183,0.425,0.4283,0.4306,0.4381,0.4394,0.4426,0.4476,0.4501,0.4542,0.4559,0.4602,0.4626,0.4658,0.4704,0.4714,0.4741,0.4764,0.4762,0.4761,0.4765,0.4764,0.4734,0.4779,0.4779,0.4779,0.4779,0,0.4165,0.4187,0.4263,0.4283,0.4309,0.4363,0.4387,0.4423,0.4466,0.4493,0.4538,0.4562,0.4622,0.4652,0.4689,0.4718,0.4728,0.4748,0.4757,0.4744,0.4741,0.4757,0.4759,0.4779,0.4779,0.4779,0.4779,0,0.4117,0.4169,0.4208,0.4276,0.4293,0.4309,0.4367,0.4387,0.4426,0.4459,0.4469,0.4529,0.4567,0.4617,0.467,0.4695,0.4719,0.4734,0.4703,0.4708,0.4703,0.4703,0.4682,0.4681,0.4727,0.4726,0.4726,0,0.4102,0.4121,0.4191,0.4213,0.4244,0.4278,0.4305,0.4359,0.4384,0.4441,0.4455,0.4497,0.4533,0.4592,0.4639,0.468,0.4695,0.4685,0.4702,0.4687,0.4694,0.4692,0.4694,0.4681,0.468,0.4679,0.4679,0,0.407,0.4095,0.4132,0.4179,0.421,0.4248,0.4289,0.4304,0.4366,0.4392,0.4433,0.4461,0.4516,0.4557,0.4604,0.4635,0.4666,0.4673,0.4675,0.4661,0.4642,0.4652,0.4691,0.4673,0.4674,0.4674,0.4675,0.4675,0.4038,0.4057,0.4109,0.4149,0.4186,0.4223,0.4245,0.4287,0.4322,0.4372,0.4401,0.444,0.4488,0.4555,0.4585,0.4615,0.4627,0.463,0.463,0.463,0.4625,0.4638,0.4624,0.4624,0.4624,0.4624,0.4625,0,0.4007,0.4044,0.408,0.4136,0.4168,0.4197,0.4243,0.4266,0.4301,0.4343,0.4379,0.4424,0.4464,0.4514,0.4557,0.4572,0.4587,0.4581,0.458,0.4587,0.4612,0.4606,0.4568,0.4568,0.4568,0.4568,0.4568,0.4568,0.3995,0.4028,0.4059,0.411,0.4146,0.4186,0.421,0.4243,0.4278,0.4327,0.4361,0.4394,0.444,0.4486,0.4523,0.4537,0.455,0.4539,0.4557,0.458,0.4585,0.459,0.4584,0.4542,0.4542,0.4529,0.4529,0.4529]},{"header":{"parameterUnit":"m.s-1","parameterCategory":1,"la1":30.2991,"la2":30.254,"lo1":-89.0895,"lo2":-89.0444,"dy":0.0017,"dx":0.0017,"nx":28,"ny":28,"refTime":"2023-08-18T09:00:00:Z","depth":0,"parameterNumber":3,"parameterNumberName":"V-component_of_WINDS"},"data":[0,0,0,0,0,0,0,0,0,0,0,0,0,0,0,0,0,0,0,0,0,0,0,0,0,0,0,0,0,0,0,0,0,0,0,0,0,0,0,0,0,0,0,0,0,0,0,0,0,0,0,0,0,0,0,0,0,0,4.5897,4.5897,0,4.5891,4.5891,4.589,4.5836,4.5835,4.5834,4.5832,4.5827,4.5828,4.5829,0,0,0,0,0,0,0,0,0,0,0,0,0,4.5863,4.5863,4.5897,4.5897,4.5897,4.5891,4.5891,4.589,4.5837,4.5835,4.5833,4.5832,4.5826,4.5828,4.5829,0,0,0,0,0,0,0,0,0,0,0,0,0,4.5869,4.5864,4.5897,4.5869,4.5867,4.5891,4.5891,4.589,4.5837,4.5835,4.5833,4.5831,4.5826,4.5827,4.5829,4.5879,0,0,4.5834,4.5835,0,0,0,0,0,0,0,0,4.5869,4.587,4.5873,4.5871,4.5868,4.5862,4.5876,4.5887,4.5837,4.5848,4.5832,4.583,4.584,4.5841,4.5844,4.5879,4.5879,4.5834,4.5835,4.5836,4.5836,0,0,0,0,0,0,0,4.5868,4.587,4.5894,4.5873,4.587,4.5857,4.5856,4.5878,4.5856,4.5847,4.5843,4.5843,4.5838,4.5842,4.5843,4.5879,4.5834,4.5836,4.5837,4.5837,4.5955,4.5957,0,0,0,0,0,0,4.5872,4.587,4.5895,4.5894,4.5864,4.5859,4.5858,4.5866,4.5855,4.5852,4.5845,4.5841,4.584,4.5841,4.5843,4.5901,4.5836,4.5837,4.5838,4.5953,4.5955,4.5958,0,0,0,0,0,0,4.5871,4.5874,4.5895,4.5881,4.5883,4.5862,4.5872,4.5867,4.5871,4.5853,4.5849,4.5853,4.5839,4.584,4.5871,4.59,4.5838,4.584,4.595,4.5954,4.5957,4.6018,0,0,0,0,0,0,4.587,4.5875,4.5894,4.5882,4.5884,4.5923,4.5874,4.5868,4.5874,4.5868,4.586,4.5857,4.5837,4.5868,4.5872,4.5901,4.5841,4.5948,4.5952,4.5956,4.6013,4.6023,4.6031,0,0,0,0,0,4.5869,4.5911,4.5895,4.5898,4.5907,4.5925,4.5926,4.5903,4.5876,4.5895,4.5884,4.5857,4.5896,4.5872,4.5876,4.5906,4.5946,4.5951,4.5955,4.6009,4.6021,4.6031,0,0,0,0,0,0,4.5927,4.5909,4.5891,4.593,4.5929,4.5916,4.5939,4.5916,4.5923,4.5917,4.5888,4.5887,4.5922,4.5916,4.589,4.5954,4.5916,4.5922,4.5956,4.5967,4.5976,4.5976,4.5842,0,0,0,0,0,4.5945,4.596,4.5944,4.598,4.5981,4.596,4.5967,4.5949,4.5947,4.5947,4.5937,4.5937,4.5949,4.5957,4.5968,4.6012,4.6009,4.6034,4.6043,4.6051,4.6056,4.6079,4.609,4.5974,4.5974,4.5973,0,0,4.5981,4.5973,4.5985,4.5992,4.5989,4.6006,4.596,4.598,4.5993,4.595,4.5978,4.5971,4.5968,4.6006,4.6022,4.6002,4.6088,4.6057,4.6063,4.6064,4.6085,4.6096,4.6106,4.5977,4.5976,4.5976,0,0,4.6055,4.6051,4.608,4.6078,4.6074,4.606,4.6067,4.6057,4.6051,4.6078,4.6046,4.6061,4.6082,4.6081,4.6084,4.6157,4.6133,4.6161,4.6208,4.6231,4.624,4.6248,4.6275,4.6284,4.6167,4.6167,4.6167,0,4.61,4.6125,4.6098,4.6121,4.6125,4.6086,4.6116,4.6115,4.6115,4.6119,4.6097,4.6123,4.6119,4.6155,4.6173,4.6176,4.6184,4.6163,4.6241,4.6249,4.6256,4.6281,4.6291,4.6171,4.617,4.617,4.617,0,4.6181,4.6198,4.6222,4.6223,4.6229,4.6255,4.6233,4.6243,4.6224,4.6213,4.6241,4.6234,4.6242,4.6249,4.6232,4.6283,4.6272,4.6246,4.6208,4.6271,4.6294,4.6303,4.6176,4.6174,4.6173,4.6172,0,0,4.6292,4.6277,4.6287,4.6286,4.6279,4.6292,4.6316,4.6323,4.6332,4.6333,4.6353,4.6371,4.6347,4.635,4.6332,4.6352,4.6411,4.6324,4.6323,4.634,4.6468,4.6487,4.6499,4.6394,4.6396,4.6397,4.6468,0,4.6364,4.6404,4.638,4.6424,4.6439,4.6403,4.6423,4.6421,4.6411,4.6422,4.6411,4.6424,4.6392,4.6393,4.6411,4.64,4.6436,4.6394,4.6412,4.6413,4.6414,4.651,4.6531,4.6598,4.6477,4.6478,4.6479,0,4.6453,4.6457,4.6502,4.6491,4.6497,4.6516,4.6521,4.6532,4.6529,4.652,4.6523,4.65,4.6522,4.6484,4.6516,4.6488,4.6494,4.6489,4.6491,4.6492,4.645,4.6515,4.6619,4.663,4.6493,4.6492,4.6491,0,4.653,4.6547,4.6576,4.6577,4.6565,4.6579,4.6575,4.6569,4.6575,4.6579,4.6583,4.659,4.6594,4.66,4.6579,4.6553,4.6613,4.6573,4.6606,4.6607,4.6621,4.662,4.6728,4.6624,4.6624,4.6624,4.6624,0,4.6613,4.6642,4.661,4.6628,4.666,4.6632,4.6664,4.6656,4.6651,4.6667,4.6635,4.6651,4.6622,4.6635,4.6619,4.6647,4.6649,4.6643,4.6638,4.6646,4.6647,4.6649,4.6644,4.6627,4.6626,4.6625,4.6625,0,4.6704,4.6685,4.6714,4.67,4.6697,4.672,4.6708,4.6724,4.6711,4.6732,4.6735,4.6714,4.6728,4.6707,4.6718,4.6707,4.6747,4.6735,4.6748,4.6744,4.6779,4.6776,4.6893,4.6907,4.6793,4.6795,4.6795,0,4.6759,4.678,4.6768,4.6776,4.6773,4.6787,4.6792,4.6766,4.6773,4.6771,4.6787,4.6797,4.6804,4.6827,4.6814,4.6822,4.681,4.6851,4.6811,4.6818,4.6811,4.681,4.6812,4.6859,4.686,4.6861,4.6862,0,4.6858,4.6846,4.6855,4.6861,4.6868,4.6871,4.6872,4.6881,4.6853,4.6863,4.6875,4.6881,4.6892,4.6902,4.6907,4.6903,4.6878,4.6875,4.6883,4.6891,4.6898,4.6895,4.677,4.6872,4.6871,4.687,4.687,4.687,4.6932,4.6949,4.6943,4.6954,4.6952,4.6953,4.6968,4.6956,4.6966,4.6972,4.6956,4.6973,4.6969,4.6972,4.6971,4.6983,4.6966,4.6978,4.6981,4.6984,4.699,4.6895,4.6984,4.6984,4.6984,4.6983,4.6983,0,4.703,4.7024,4.7034,4.7036,4.7044,4.7019,4.7019,4.7028,4.7043,4.7041,4.7048,4.7062,4.7073,4.706,4.7067,4.708,4.7069,4.7083,4.7082,4.7082,4.7005,4.6997,4.7092,4.7092,4.7092,4.7092,4.7092,4.7092,4.7081,4.7109,4.7097,4.7123,4.7116,4.7132,4.7134,4.7135,4.7133,4.7151,4.7159,4.715,4.7143,4.715,4.7159,4.7154,4.7159,4.7177,4.7169,4.7098,4.7087,4.7077,4.707,4.7178,4.7178,4.7245,4.7246,4.7246]}]]